TimeEDT,TemperatureF,Dew PointF,Humidity,Sea Level PressureIn,VisibilityMPH,Wind Direction,Wind SpeedMPH,Gust SpeedMPH,PrecipitationIn,Events,Conditions,WindDirDegrees,DateUTC
12:00 AM,75.2,69.8,83,30.15,10.0,Calm,Calm,-,N/A,,Clear,0,2013-06-24 04:00:00
12:20 AM,75.2,69.8,83,30.15,10.0,Calm,Calm,-,N/A,,Clear,0,2013-06-24 04:20:00
12:40 AM,75.2,69.8,83,30.15,10.0,Calm,Calm,-,N/A,,Clear,0,2013-06-24 04:40:00
1:00 AM,75.2,69.8,83,30.15,10.0,SW,4.6,-,N/A,,Clear,230,2013-06-24 05:00:00
1:20 AM,75.2,69.8,83,30.14,10.0,SW,4.6,-,N/A,,Clear,220,2013-06-24 05:20:00
1:40 AM,73.4,69.8,88,30.14,10.0,Calm,Calm,-,N/A,,Clear,0,2013-06-24 05:40:00
2:00 AM,73.4,69.8,88,30.14,10.0,Calm,Calm,-,N/A,,Clear,0,2013-06-24 06:00:00
2:20 AM,73.4,69.8,88,30.14,10.0,SW,3.5,-,N/A,,Clear,220,2013-06-24 06:20:00
2:40 AM,73.4,69.8,88,30.13,10.0,Calm,Calm,-,N/A,,Clear,0,2013-06-24 06:40:00
3:00 AM,73.4,68.0,83,30.13,10.0,WSW,3.5,-,N/A,,Clear,240,2013-06-24 07:00:00
3:20 AM,73.4,68.0,83,30.13,10.0,SW,4.6,-,N/A,,Clear,220,2013-06-24 07:20:00
3:40 AM,73.4,68.0,83,30.13,10.0,SW,4.6,-,N/A,,Clear,230,2013-06-24 07:40:00
4:00 AM,73.4,69.8,88,30.14,10.0,WSW,5.8,-,N/A,,Clear,240,2013-06-24 08:00:00
4:20 AM,71.6,68.0,88,30.14,10.0,Calm,Calm,-,N/A,,Clear,0,2013-06-24 08:20:00
4:40 AM,71.6,68.0,88,30.14,10.0,Calm,Calm,-,N/A,,Clear,0,2013-06-24 08:40:00
5:00 AM,71.6,68.0,88,30.14,10.0,Calm,Calm,-,N/A,,Clear,0,2013-06-24 09:00:00
5:20 AM,71.6,68.0,88,30.14,10.0,Calm,Calm,-,N/A,,Scattered Clouds,0,2013-06-24 09:20:00
5:40 AM,71.6,68.0,88,30.13,10.0,Calm,Calm,-,N/A,,Clear,0,2013-06-24 09:40:00
6:00 AM,71.6,66.2,83,30.14,10.0,Calm,Calm,-,N/A,,Clear,0,2013-06-24 10:00:00
6:20 AM,71.6,68.0,88,30.14,10.0,Calm,Calm,-,N/A,,Clear,0,2013-06-24 10:20:00
6:40 AM,71.6,68.0,88,30.14,10.0,Calm,Calm,-,N/A,,Clear,0,2013-06-24 10:40:00
7:00 AM,73.4,68.0,83,30.15,10.0,Calm,Calm,-,N/A,,Clear,0,2013-06-24 11:00:00
7:20 AM,73.4,68.0,83,30.15,10.0,Calm,Calm,-,N/A,,Clear,0,2013-06-24 11:20:00
7:40 AM,73.4,68.0,83,30.15,10.0,Calm,Calm,-,N/A,,Clear,0,2013-06-24 11:40:00
8:00 AM,73.4,68.0,83,30.16,10.0,WSW,5.8,-,N/A,,Clear,240,2013-06-24 12:00:00
8:20 AM,75.2,69.8,83,30.15,10.0,SW,4.6,-,N/A,,Clear,220,2013-06-24 12:20:00
8:40 AM,77.0,69.8,78,30.15,10.0,SW,3.5,-,N/A,,Clear,230,2013-06-24 12:40:00
9:00 AM,78.8,69.8,74,30.15,10.0,SSW,3.5,-,N/A,,Clear,210,2013-06-24 13:00:00
9:20 AM,78.8,69.8,74,30.15,10.0,Calm,Calm,-,N/A,,Clear,0,2013-06-24 13:20:00
9:40 AM,80.6,69.8,70,30.15,10.0,Calm,Calm,-,N/A,,Clear,0,2013-06-24 13:40:00
10:20 AM,84.2,68.0,58,30.16,10.0,NW,4.6,-,N/A,,Clear,310,2013-06-24 14:20:00
10:40 AM,82.4,69.8,66,30.16,10.0,WSW,6.9,-,N/A,,Clear,250,2013-06-24 14:40:00
11:00 AM,82.4,69.8,66,30.16,10.0,WNW,5.8,-,N/A,,Clear,290,2013-06-24 15:00:00
11:20 AM,84.2,69.8,62,30.16,10.0,West,5.8,-,N/A,,Clear,270,2013-06-24 15:20:00
11:40 AM,84.2,71.6,66,30.16,10.0,SW,4.6,-,N/A,,Clear,230,2013-06-24 15:40:00
12:00 PM,87.8,71.6,58,30.15,10.0,WNW,5.8,-,N/A,,Clear,290,2013-06-24 16:00:00
12:20 PM,87.8,69.8,55,30.15,10.0,West,8.1,-,N/A,,Clear,260,2013-06-24 16:20:00
12:40 PM,87.8,68.0,52,30.15,10.0,Calm,Calm,-,N/A,,Clear,0,2013-06-24 16:40:00
2:20 PM,89.6,68.0,49,30.10,10.0,NW,4.6,-,N/A,,Clear,310,2013-06-24 18:20:00
3:40 PM,87.8,66.2,49,30.08,10.0,West,6.9,-,N/A,,Clear,260,2013-06-24 19:40:00
4:00 PM,87.8,66.2,49,30.07,10.0,WSW,6.9,-,N/A,,Clear,240,2013-06-24 20:00:00
4:20 PM,87.8,66.2,49,30.07,10.0,SW,9.2,-,N/A,,Clear,220,2013-06-24 20:20:00
4:40 PM,86.0,68.0,55,30.08,10.0,WSW,13.8,19.6,N/A,,Clear,240,2013-06-24 20:40:00
5:00 PM,82.4,66.2,58,30.09,10.0,SW,17.3,21.9,N/A,,Clear,230,2013-06-24 21:00:00
5:20 PM,75.2,66.2,73,30.10,10.0,SW,9.2,12.7,N/A,Thunderstorm,Clear,230,2013-06-24 21:20:00
5:40 PM,77.0,64.4,65,30.08,10.0,SW,9.2,16.1,N/A,,Clear,230,2013-06-24 21:40:00
6:00 PM,78.8,64.4,61,30.08,10.0,WSW,11.5,-,N/A,,Clear,240,2013-06-24 22:00:00
6:20 PM,80.6,62.6,54,30.07,10.0,SW,9.2,-,N/A,,Clear,230,2013-06-24 22:20:00
6:40 PM,80.6,64.4,58,30.07,10.0,WSW,8.1,-,N/A,,Clear,240,2013-06-24 22:40:00
7:00 PM,80.6,64.4,58,30.07,10.0,WSW,8.1,-,N/A,,Clear,250,2013-06-24 23:00:00
7:20 PM,80.6,64.4,58,30.07,10.0,SW,9.2,-,N/A,,Clear,230,2013-06-24 23:20:00
7:40 PM,78.8,64.4,61,30.08,10.0,SW,10.4,-,N/A,,Clear,230,2013-06-24 23:40:00
8:00 PM,78.8,62.6,57,30.07,10.0,West,4.6,-,N/A,,Clear,260,2013-06-25 00:00:00
8:20 PM,78.8,62.6,57,30.07,10.0,West,3.5,-,N/A,,Clear,260,2013-06-25 00:20:00
8:40 PM,75.2,62.6,65,30.07,10.0,SW,4.6,-,N/A,,Clear,230,2013-06-25 00:40:00
9:00 PM,75.2,64.4,69,30.06,10.0,WSW,3.5,-,N/A,,Clear,250,2013-06-25 01:00:00
9:20 PM,75.2,64.4,69,30.06,10.0,Calm,Calm,-,N/A,,Clear,0,2013-06-25 01:20:00
9:40 PM,73.4,64.4,73,30.07,10.0,SSW,5.8,-,N/A,,Clear,210,2013-06-25 01:40:00
10:00 PM,73.4,66.2,78,30.08,10.0,SW,5.8,-,N/A,,Clear,220,2013-06-25 02:00:00
10:20 PM,73.4,66.2,78,30.08,10.0,SW,3.5,-,N/A,,Clear,230,2013-06-25 02:20:00
10:40 PM,73.4,66.2,78,30.09,10.0,Calm,Calm,-,N/A,,Clear,0,2013-06-25 02:40:00
11:00 PM,73.4,66.2,78,30.09,10.0,Calm,Calm,-,N/A,,Clear,0,2013-06-25 03:00:00
11:20 PM,71.6,66.2,83,30.09,10.0,WSW,5.8,-,N/A,,Clear,250,2013-06-25 03:20:00
11:40 PM,71.6,66.2,83,30.08,10.0,WSW,4.6,-,N/A,,Clear,240,2013-06-25 03:40:00